DLH283 EDDF-EDDM

Flight info

Callsign DLH283
Flight time 0h 35m
Altitude 23000
Route CINDY5L CINDY Z74 HAREM T104 ROKIL ROKIL1B
Aircraft A346/H-SDE2E3FGHIJ3J4J5M1RWXY/LB1D1

Departure

Time 2026-05-07 20:02
Airport Frankfurt Main Airport (EDDF)

Arrival

Time 2026-05-07 20:37
Airport Munich Airport (EDDM)
Time Latitude Longitude Altitude Speed Heading
2026-05-07 19:25 50.04641 8.55945 364 ft 0 kts 340°
2026-05-07 19:47 50.04628 8.55952 368 ft 4 kts 341°
2026-05-07 19:48 50.04603 8.55965 368 ft 4 kts 341°
2026-05-07 19:48 50.04584 8.55977 368 ft 4 kts 321°
2026-05-07 19:48 50.04575 8.55998 366 ft 4 kts 281°
2026-05-07 19:48 50.04574 8.56036 367 ft 4 kts 261°
2026-05-07 19:49 50.04580 8.56075 368 ft 4 kts 252°
2026-05-07 19:49 50.04584 8.56094 369 ft 0 kts 250°
2026-05-07 19:52 50.04579 8.56069 371 ft 5 kts 250°
2026-05-07 19:52 50.04554 8.55989 368 ft 10 kts 229°
2026-05-07 19:53 50.04484 8.55937 370 ft 6 kts 197°
2026-05-07 19:53 50.04443 8.55919 369 ft 9 kts 192°
2026-05-07 19:53 50.04356 8.55924 369 ft 8 kts 162°
2026-05-07 19:53 50.04335 8.55935 368 ft 0 kts 160°
2026-05-07 19:54 50.04321 8.55942 366 ft 7 kts 161°
2026-05-07 19:54 50.04254 8.55940 366 ft 12 kts 202°
2026-05-07 19:54 50.04167 8.55931 367 ft 10 kts 162°
2026-05-07 19:54 50.04103 8.55963 365 ft 6 kts 171°
2026-05-07 19:55 50.04050 8.55936 367 ft 11 kts 231°
2026-05-07 19:55 50.04016 8.55814 363 ft 14 kts 248°
2026-05-07 19:55 50.03975 8.55645 365 ft 18 kts 249°
2026-05-07 19:55 50.03940 8.55496 361 ft 16 kts 250°
2026-05-07 19:56 50.03913 8.55382 362 ft 10 kts 249°
2026-05-07 19:56 50.03883 8.55260 362 ft 14 kts 249°
2026-05-07 19:56 50.03845 8.55101 359 ft 18 kts 250°
2026-05-07 19:56 50.03799 8.54904 362 ft 21 kts 249°
2026-05-07 19:57 50.03741 8.54665 360 ft 25 kts 250°
2026-05-07 19:57 50.03678 8.54398 359 ft 25 kts 250°
2026-05-07 19:57 50.03624 8.54175 352 ft 15 kts 249°
2026-05-07 19:57 50.03586 8.54015 356 ft 18 kts 249°
2026-05-07 19:58 50.03539 8.53817 353 ft 21 kts 249°
2026-05-07 19:58 50.03484 8.53588 353 ft 19 kts 249°
2026-05-07 19:58 50.03432 8.53374 356 ft 23 kts 249°
2026-05-07 19:58 50.03380 8.53154 351 ft 21 kts 250°
2026-05-07 19:59 50.03329 8.52942 352 ft 18 kts 249°
2026-05-07 19:59 50.03290 8.52780 351 ft 18 kts 249°
2026-05-07 19:59 50.03251 8.52654 353 ft 7 kts 232°
2026-05-07 19:59 50.03202 8.52600 352 ft 11 kts 195°
2026-05-07 20:00 50.03161 8.52596 350 ft 0 kts 180°
2026-05-07 20:01 50.02991 8.52597 346 ft 63 kts 179°
2026-05-07 20:01 50.02222 8.52606 344 ft 153 kts 179°
2026-05-07 20:01 50.00960 8.52616 672 ft 197 kts 179°
2026-05-07 20:02 49.99576 8.52639 1890 ft 195 kts 177°
2026-05-07 20:02 49.98216 8.52728 3129 ft 196 kts 176°
2026-05-07 20:02 49.96852 8.52880 4242 ft 197 kts 175°
2026-05-07 20:02 49.95448 8.53034 4971 ft 208 kts 176°
2026-05-07 20:03 49.93971 8.53162 5685 ft 219 kts 178°
2026-05-07 20:03 49.92429 8.53321 6383 ft 230 kts 177°
2026-05-07 20:03 49.90771 8.53410 6936 ft 247 kts 183°
2026-05-07 20:03 49.88995 8.53265 7612 ft 258 kts 180°
2026-05-07 20:04 49.87204 8.53387 8682 ft 256 kts 177°
2026-05-07 20:04 49.85430 8.53576 9778 ft 254 kts 177°
2026-05-07 20:04 49.83665 8.53764 10718 ft 254 kts 177°
2026-05-07 20:04 49.81905 8.53936 11559 ft 259 kts 178°
2026-05-07 20:05 49.80115 8.54425 12344 ft 267 kts 156°
2026-05-07 20:05 49.78657 8.56210 13228 ft 272 kts 127°
2026-05-07 20:05 49.77891 8.58941 13865 ft 287 kts 98°
2026-05-07 20:05 49.77758 8.62120 14350 ft 304 kts 92°
2026-05-07 20:06 49.77696 8.65489 14807 ft 322 kts 92°
2026-05-07 20:06 49.77619 8.69056 15232 ft 340 kts 92°
2026-05-07 20:06 49.77517 8.72807 15642 ft 358 kts 93°
2026-05-07 20:06 49.77394 8.76759 16043 ft 376 kts 93°
2026-05-07 20:07 49.77254 8.80911 16408 ft 395 kts 93°
2026-05-07 20:07 49.77100 8.85265 16782 ft 411 kts 93°
2026-05-07 20:07 49.76941 8.89687 17435 ft 419 kts 93°
2026-05-07 20:07 49.76774 8.94220 18276 ft 423 kts 93°
2026-05-07 20:08 49.76603 8.98839 18991 ft 427 kts 93°
2026-05-07 20:08 49.76425 9.03499 19683 ft 432 kts 94°
2026-05-07 20:08 49.76101 9.08413 20426 ft 436 kts 98°
2026-05-07 20:08 49.75582 9.13055 21124 ft 440 kts 103°
2026-05-07 20:09 49.74581 9.17537 21794 ft 444 kts 115°
2026-05-07 20:09 49.73032 9.21718 22507 ft 446 kts 126°
2026-05-07 20:09 49.71043 9.25548 22988 ft 449 kts 132°
2026-05-07 20:10 49.66805 9.32800 23060 ft 450 kts 133°
2026-05-07 20:10 49.64710 9.36407 23060 ft 450 kts 133°
2026-05-07 20:10 49.62628 9.40043 23061 ft 450 kts 132°
2026-05-07 20:10 49.60509 9.43771 23061 ft 450 kts 132°
2026-05-07 20:11 49.58418 9.47455 23058 ft 450 kts 132°
2026-05-07 20:11 49.56318 9.51150 23059 ft 450 kts 132°
2026-05-07 20:11 49.54266 9.54754 23061 ft 451 kts 132°
2026-05-07 20:11 49.52175 9.58417 23064 ft 451 kts 132°
2026-05-07 20:12 49.50008 9.62209 23066 ft 451 kts 132°
2026-05-07 20:12 49.47932 9.65835 23070 ft 451 kts 132°
2026-05-07 20:12 49.45855 9.69457 23070 ft 451 kts 132°
2026-05-07 20:12 49.43772 9.73083 23072 ft 451 kts 133°
2026-05-07 20:13 49.41686 9.76710 23071 ft 451 kts 133°
2026-05-07 20:13 49.39629 9.80281 23070 ft 452 kts 133°
2026-05-07 20:13 49.37539 9.83905 23075 ft 452 kts 133°
2026-05-07 20:13 49.35436 9.87542 23076 ft 452 kts 133°
2026-05-07 20:14 49.33346 9.91151 23075 ft 452 kts 133°
2026-05-07 20:14 49.31249 9.94765 23074 ft 452 kts 133°
2026-05-07 20:14 49.29177 9.98330 23074 ft 452 kts 133°
2026-05-07 20:14 49.27058 10.01970 23074 ft 453 kts 133°
2026-05-07 20:15 49.24956 10.05576 23072 ft 453 kts 133°
2026-05-07 20:15 49.22841 10.09199 23075 ft 453 kts 133°
2026-05-07 20:15 49.20754 10.12768 23084 ft 453 kts 133°
2026-05-07 20:15 49.18621 10.16416 23079 ft 453 kts 133°
2026-05-07 20:16 49.16515 10.20016 23080 ft 453 kts 133°
2026-05-07 20:16 49.14408 10.23612 23084 ft 454 kts 134°
2026-05-07 20:16 49.12262 10.27165 23093 ft 454 kts 135°
2026-05-07 20:16 49.10073 10.30683 23096 ft 454 kts 135°
2026-05-07 20:17 49.07882 10.34178 23033 ft 455 kts 135°
2026-05-07 20:17 49.05696 10.37668 22760 ft 452 kts 135°
2026-05-07 20:17 49.03539 10.41118 22488 ft 450 kts 135°
2026-05-07 20:17 49.01384 10.44569 22216 ft 449 kts 135°
2026-05-07 20:18 48.99193 10.48073 21933 ft 447 kts 136°
2026-05-07 20:18 48.97019 10.51539 21654 ft 445 kts 136°
2026-05-07 20:18 48.94876 10.54951 21327 ft 444 kts 136°
2026-05-07 20:18 48.92752 10.58333 20915 ft 441 kts 136°
2026-05-07 20:19 48.90629 10.61711 20464 ft 438 kts 136°
2026-05-07 20:19 48.88526 10.65050 20037 ft 434 kts 136°
2026-05-07 20:19 48.86466 10.68317 19592 ft 431 kts 136°
2026-05-07 20:19 48.84390 10.71604 19153 ft 428 kts 136°
2026-05-07 20:20 48.82325 10.74868 18702 ft 424 kts 136°
2026-05-07 20:20 48.80281 10.78095 18204 ft 421 kts 136°
2026-05-07 20:20 48.78251 10.81285 17735 ft 417 kts 136°
2026-05-07 20:20 48.76232 10.84451 17292 ft 412 kts 136°
2026-05-07 20:21 48.74275 10.87516 16861 ft 407 kts 136°
2026-05-07 20:21 48.72311 10.90589 16430 ft 403 kts 136°
2026-05-07 20:21 48.70366 10.93629 16013 ft 400 kts 136°
2026-05-07 20:21 48.68435 10.96644 15590 ft 396 kts 136°
2026-05-07 20:22 48.66516 10.99634 15159 ft 393 kts 136°
2026-05-07 20:22 48.64597 11.02619 14725 ft 390 kts 136°
2026-05-07 20:22 48.62696 11.05572 14305 ft 388 kts 136°
2026-05-07 20:22 48.60813 11.08492 13883 ft 385 kts 136°
2026-05-07 20:23 48.58941 11.11307 13522 ft 379 kts 139°
2026-05-07 20:23 48.56970 11.13845 13393 ft 364 kts 144°
2026-05-07 20:23 48.54954 11.16039 13263 ft 350 kts 148°
2026-05-07 20:23 48.53107 11.18361 13091 ft 343 kts 130°
2026-05-07 20:24 48.52050 11.21583 12976 ft 345 kts 103°
2026-05-07 20:24 48.51987 11.25232 13007 ft 353 kts 79°
2026-05-07 20:24 48.52508 11.28835 13054 ft 354 kts 76°
2026-05-07 20:24 48.53083 11.32458 13052 ft 355 kts 76°
2026-05-07 20:25 48.53648 11.36099 13029 ft 355 kts 76°
2026-05-07 20:25 48.54192 11.39742 12812 ft 355 kts 77°
2026-05-07 20:25 48.54722 11.43398 12371 ft 354 kts 77°
2026-05-07 20:25 48.55232 11.46980 11976 ft 351 kts 77°
2026-05-07 20:26 48.55738 11.50571 11600 ft 347 kts 77°
2026-05-07 20:26 48.56238 11.54131 11237 ft 344 kts 77°
2026-05-07 20:26 48.56696 11.57691 10850 ft 341 kts 83°
2026-05-07 20:26 48.56640 11.61285 10487 ft 338 kts 100°
2026-05-07 20:27 48.56030 11.64624 10289 ft 328 kts 110°
2026-05-07 20:27 48.55278 11.67832 10207 ft 315 kts 111°
2026-05-07 20:27 48.54539 11.70896 10130 ft 303 kts 111°
2026-05-07 20:27 48.53834 11.73842 9996 ft 295 kts 111°
2026-05-07 20:28 48.53377 11.75775 9762 ft 295 kts 111°
2026-05-07 20:28 48.52468 11.79650 9330 ft 293 kts 111°
2026-05-07 20:28 48.52009 11.81622 9140 ft 292 kts 111°
2026-05-07 20:28 48.51340 11.84503 8848 ft 289 kts 111°
2026-05-07 20:29 48.50681 11.87345 8562 ft 287 kts 110°
2026-05-07 20:29 48.50022 11.90187 8277 ft 285 kts 110°
2026-05-07 20:29 48.49369 11.93001 7994 ft 283 kts 110°
2026-05-07 20:29 48.48717 11.95806 7715 ft 282 kts 110°
2026-05-07 20:30 48.48069 11.98592 7455 ft 279 kts 110°
2026-05-07 20:30 48.47231 12.01171 7203 ft 270 kts 133°
2026-05-07 20:30 48.45897 12.03056 7053 ft 259 kts 140°
2026-05-07 20:30 48.44640 12.04979 6838 ft 254 kts 133°
2026-05-07 20:31 48.43517 12.06972 6552 ft 251 kts 131°
2026-05-07 20:31 48.42418 12.08984 6228 ft 244 kts 131°
2026-05-07 20:31 48.41346 12.10949 5860 ft 239 kts 131°
2026-05-07 20:31 48.40177 12.12684 5483 ft 233 kts 150°
2026-05-07 20:32 48.38686 12.13301 5142 ft 223 kts 184°
2026-05-07 20:32 48.37265 12.12575 4823 ft 214 kts 218°
2026-05-07 20:32 48.36428 12.10813 4468 ft 205 kts 253°
2026-05-07 20:32 48.36399 12.08732 4185 ft 194 kts 278°
2026-05-07 20:33 48.36803 12.06881 3955 ft 181 kts 303°
2026-05-07 20:33 48.37605 12.05488 3731 ft 170 kts 307°
2026-05-07 20:33 48.38056 12.03920 3515 ft 163 kts 280°
2026-05-07 20:33 48.38129 12.02230 3312 ft 161 kts 270°
2026-05-07 20:34 48.38081 12.00570 3202 ft 158 kts 267°
2026-05-07 20:34 48.37992 11.98925 3202 ft 156 kts 265°
2026-05-07 20:34 48.37877 11.97293 3200 ft 156 kts 264°
2026-05-07 20:34 48.37750 11.95655 3197 ft 156 kts 264°
2026-05-07 20:35 48.37620 11.94032 3089 ft 156 kts 264°
2026-05-07 20:35 48.37492 11.92428 2873 ft 155 kts 264°
2026-05-07 20:35 48.37367 11.90812 2663 ft 155 kts 264°
2026-05-07 20:35 48.37237 11.89206 2451 ft 154 kts 264°
2026-05-07 20:36 48.37110 11.87593 2235 ft 154 kts 264°
2026-05-07 20:36 48.36985 11.85984 2012 ft 154 kts 264°
2026-05-07 20:36 48.36858 11.84386 1797 ft 153 kts 264°
2026-05-07 20:36 48.36737 11.82795 1609 ft 153 kts 264°
2026-05-07 20:37 48.36615 11.81215 1494 ft 142 kts 265°
2026-05-07 20:37 48.36528 11.80026 1484 ft 86 kts 263°
2026-05-07 20:37 48.36475 11.79343 1494 ft 50 kts 263°
2026-05-07 20:37 48.36418 11.78972 1482 ft 30 kts 244°
2026-05-07 20:38 48.36313 11.78732 1481 ft 24 kts 233°
2026-05-07 20:38 48.36230 11.78565 1485 ft 18 kts 232°
2026-05-07 20:38 48.36118 11.78480 1487 ft 16 kts 176°
2026-05-07 20:38 48.36042 11.78527 1483 ft 12 kts 108°
2026-05-07 20:39 48.36044 11.78669 1494 ft 15 kts 83°
2026-05-07 20:39 48.36057 11.78846 1489 ft 19 kts 83°
2026-05-07 20:39 48.36069 11.79004 1485 ft 10 kts 83°
2026-05-07 20:39 48.36079 11.79124 1482 ft 13 kts 83°
2026-05-07 20:40 48.36086 11.79243 1485 ft 10 kts 93°
2026-05-07 20:40 48.36041 11.79322 1481 ft 12 kts 164°
2026-05-07 20:40 48.35948 11.79346 1487 ft 10 kts 161°
2026-05-07 20:40 48.35917 11.79364 1487 ft 3 kts 159°
2026-05-07 20:41 48.35884 11.79376 1486 ft 5 kts 179°
2026-05-07 20:41 48.35855 11.79339 1482 ft 7 kts 245°
2026-05-07 20:41 48.35850 11.79316 1483 ft 3 kts 254°
2026-05-07 20:41 48.35847 11.79297 1479 ft 3 kts 260°
2026-05-07 20:42 48.35846 11.79283 1482 ft 1 kts 261°
2026-05-07 20:42 48.35845 11.79273 1486 ft 0 kts 261°
2026-05-07 20:42 48.35844 11.79268 1488 ft 1 kts 262°
2026-05-07 20:42 48.35843 11.79261 1487 ft 1 kts 262°
2026-05-07 20:43 48.35843 11.79259 1487 ft 0 kts 262°